This is the latest recevied weather packets stored in our database for station/object KC3BHK-2. If no packets are shown the sender has not sent any weather packets the latest 10 day(s).
| Time | Temp. | Humidity | Pressure | Rain* | Wind** | Luminosity | Snow |
|---|---|---|---|---|---|---|---|
| 1777949616 | 18.89° C | - | - | 0 mm | 1.79 m/s, 138° | - | - |
| 1777949311 | 17.78° C | - | - | 0 mm | 2.68 m/s, 152° | - | - |
| 1777949003 | 17.78° C | - | - | 0 mm | 1.79 m/s, 176° | - | - |
| 1777948698 | 18.33° C | - | - | 0 mm | 1.79 m/s, 162° | - | - |
| 1777948394 | 18.33° C | - | - | 0 mm | 1.34 m/s, 197° | - | - |
| 1777948089 | 18.89° C | - | - | 0 mm | 1.34 m/s, 179° | - | - |
| 1777947784 | 18.33° C | - | - | 0 mm | 0.89 m/s, 219° | - | - |
| 1777947480 | 18.33° C | - | - | 0 mm | 2.68 m/s, 198° | - | - |
| 1777947172 | 18.89° C | - | - | 0 mm | 1.79 m/s, 217° | - | - |
| 1777946868 | 18.89° C | - | - | 0 mm | 1.79 m/s, 221° | - | - |
| 1777946563 | 18.89° C | - | - | 0 mm | 2.24 m/s, 219° | - | - |
| 1777946258 | 19.44° C | - | - | 0 mm | 2.68 m/s, 205° | - | - |
| 1777945954 | 19.44° C | - | - | 0 mm | 2.68 m/s, 165° | - | - |
| 1777945649 | 20° C | - | - | 0 mm | 2.24 m/s, 172° | - | - |
| 1777945341 | 20° C | - | - | 0 mm | 2.24 m/s, 153° | - | - |
| 1777945037 | 20° C | - | - | 0 mm | 4.02 m/s, 174° | - | - |
| 1777944732 | 20° C | - | - | 0 mm | 2.68 m/s, 172° | - | - |
| 1777944427 | 20° C | - | - | 0 mm | 2.24 m/s, 186° | - | - |
| 1777944122 | 20° C | - | - | 0 mm | 3.13 m/s, 172° | - | - |
| 1777943818 | 20° C | - | - | 0 mm | 3.58 m/s, 180° | - | - |
| 1777943510 | 20° C | - | - | 0 mm | 3.13 m/s, 162° | - | - |
| 1777943205 | 20.56° C | - | - | 0 mm | 2.24 m/s, 158° | - | - |
| 1777942901 | 20.56° C | - | - | 0 mm | 4.02 m/s, 201° | - | - |
| 1777942596 | 20° C | - | - | 0 mm | 3.13 m/s, 177° | - | - |
| 1777942291 | 20.56° C | - | - | 0 mm | 1.79 m/s, 152° | - | - |
* Rain latest hour (hover to see other rain measurements)
** Current wind speed in m/s (hover to see current wind gust speed)